sat.trackr.live / text

‹ back to catalog

STARLINK-32367

NORAD 60919 · 2024-154S

PAYLOAD ACTIVE UNKNOWN

§ Identity

Operator
Country
US
Launch date
2024-08-31
Launch site
AFETR
Launch vehicle
Mass (kg)
RCS (m²)

Purposes: comms

External: N2YO · Heavens-Above · Gunter

§ Orbital elements

Epoch: 2026-09-21T19:16:38.797248Z

Period
93.85 min
Inclination
53.1604°
Eccentricity
0.0001159
Mean motion
15.34390419 rev/d
Perigee alt
461.9 km
Apogee alt
463.5 km
Semi-major
6,840.9 km
B*
1.4854e-5
RAAN
91.2997°
Arg perigee
77.4106°
Mean anomaly
282.7027°
Rev number
11,638

§ Raw data

STARLINK-323671 60919U 24154S   26264.80322682  .00000126  00000+0  14854-4 0  99962 60919  53.1604  91.2997 0001159  77.4106 282.7027 15.34390419116380

JSON: /api/v1/satellites/60919 · /tle

For live sub-satellite position, see the globe view (requires WebGL).

§ Visibility from observer

Set your observer location to see the next 7 days of passes ≥ 10°. The values pass through the URL so the page stays shareable.

No JS? Fill the form by hand. The geolocation button needs JavaScript.